"Pseudo-MPEC" for P10HKZo

Created 2018 Jun 18 9:18:15 UT using Find_Orb

Click here for an explanation of pseudo-MPECs

 
 Astrometry: 
     P10HKZo  C2018 06 11^qAstrometryQc',9KGx0vM`PT(RGVR+fX+AOG/Fm=W1EcJpdH';F51
     P10HKZo  C2018 06 11PAk*$wQZ*6uukv*kR/4cTwg$j_W@[H$_y/s)FsEAnjS\@+k.Hy`iF51
     P10HKZo  C2018 06 11#Y=YSx[W]4g03)=.Q.L*DGiiUkh;[EqnbPH`e%wF-Y65hBCnLA;pF51
     P10HKZo  C2018 06 110KaR@vx8k:B9!.rR.redacted;?`RP;tr9iyZ^IEcdw*aOBRjdEEF51
     P10HKZo  C2018 06 12.45144 22 28 05.78 -26 02 45.3          21.8 GUNEOCPI52
     P10HKZo KC2018 06 12L=wZ67:ih0c:IRm]kp(T[Z^B/ZNyEsDqjv,'3FpU0YJYfqqWhS1I691
     P10HKZo  C2018 06 12.45454 22 28 06.42 -26 02 39.6          21.5 GUNEOCPI52
     P10HKZo KC2018 06 123pEC*svOlu!\qa=*a3:rGd+3[jI0ULC%seeq@0jq96l:McUjG=X;691
     P10HKZo  C2018 06 12.45763 22 28 07.12 -26 02 34.8          21.5 GUNEOCPI52
     P10HKZo ^C2018 06 12.61265422 28 41.998-25 57 53.93         20.98GVNEOCP568
     P10HKZo ^C2018 06 12.61359722 28 42.203-25 57 52.32         21.04GVNEOCP568
     P10HKZo ^C2018 06 12.61454322 28 42.409-25 57 50.60         20.89GVNEOCP568
     P10HKZo KC2018 06 135%%@8;w\d-kk*qb%[-vtChiJ+Do,;MHPR'KDBHZa/KR9vnr1!n`y691
     P10HKZo KC2018 06 136OIuM(ik*?weDA.FUIU[UI1IACK6)J2s_l^(]B5-FVomfrHGMK2w691
     P10HKZo KC2018 06 13m/H]8Lc$E?dkWlOyHdaotVb:)d;VjNS]]UtP'7T'Wrr4?GhNEOCP691

Station data:
(568) Mauna Kea  (N19.826116 W155.472200)  US/Hawaii.
(691) Steward Observatory, Kitt Peak - Spacewatch  (N31.962174 W111.600327)
   US/Arizona.  Observer J. V. Scotti. 0.9-m f/3 reflector + CCD.
(F51) Pan-STARRS 1, Haleakala  (N20.707235 W156.255910)  US/Hawaii.
   Observers N. Primak, A. Schultz, S. Watters, J. Thiel, T. Goggia. Measurer
   PS1 Science Consortium. 1.8-m Ritchey-Chrétien + CCD.
(I52) Steward Observatory, Mt. Lemmon Station  (N32.442547 W110.788920)
   US/Arizona.  Observers B. M. Africano, E. J. Christensen, D. C. Fuls, A.
   R. Gibbs, A. D. Grauer, J. A. Johnson, R. A. Kowalski, S. M. Larson, G. J.
   Leonard, R. L. Seaman, F. C. Shelly. 1.0-m reflector + CCD.

Orbital elements:  P10HKZo
   Perihelion 2018 Aug 23.954060 +/- 4.19 TT = 22:53:50 (JD 2458354.454060)
Epoch 2018 Jun 13.0 TT = JDT 2458282.5   Earth MOID: 0.0702   AutoNEOCP
M 333.42950 +/- 8                   (J2000 ecliptic)
n   0.36927028 +/- 0.115            Peri.   39.16391 +/- 4.8
a   1.92415390 +/- 0.4              Node   312.76769 +/- 1.9
e   0.4650621 +/- 0.102             Incl.   11.92354 +/- 0.6
P   2.67/974.88d           H 20.6   G  0.15   U 11.3  
q 1.02930273 +/- 0.0257    Q 2.81900508 +/- 1.08
From 15 observations 2018 June 11-13 (45.4 hr); mean residual 0".35
Residuals in arcseconds: 
180611 F51  .00   .04+    180612 691  .73+  .33+    180612 568  .33+  .02+    
180611 F51  .11+  .02+    180612 I52  .44-  .18-    180612 568  .32+  .04+    
180611 F51  .12-  .38+    180612 691  .96-  .46+    180613 691  .28+  .29+    
180611 F51  .10-  .08-    180612 I52  .15-  .85-    180613 691  .23-  .07+    
180612 I52  .12+  .38-    180612 568  .35+  .10+    180613 691  .32-  .07-    

Ephemerides (geocentric):
Date (UTC) HH   RA              Dec         delta   r     elong  mag " sig PA
---- -- -- --  -------------   -----------  ------ ------ -----  --- ---- ---
2018 06 18 09  22 50 51.883   -22 45 32.08  .47536 1.2658 110.9 21.3  8.5 158
2018 06 18 10  22 51 01.712   -22 43 59.73  .47503 1.2656 110.9 21.3  8.6 158
2018 06 18 11  22 51 11.544   -22 42 27.23  .47471 1.2653 110.9 21.3  8.7 158
2018 06 18 12  22 51 21.380   -22 40 54.61  .47438 1.2651 110.8 21.3  8.8 158
2018 06 18 13  22 51 31.219   -22 39 21.84  .47405 1.2648 110.8 21.3  8.9 159
2018 06 18 14  22 51 41.061   -22 37 48.94  .47372 1.2646 110.8 21.3  9.0 159
2018 06 18 15  22 51 50.906   -22 36 15.90  .47340 1.2643 110.8 21.3  9.1 159
2018 06 18 16  22 52 00.755   -22 34 42.72  .47307 1.2641 110.8 21.3  9.2 159
2018 06 18 17  22 52 10.606   -22 33 09.41  .47274 1.2638 110.8 21.3  9.3 160
2018 06 18 18  22 52 20.461   -22 31 35.96  .47242 1.2636 110.8 21.3  9.5 160
2018 06 18 19  22 52 30.319   -22 30 02.37  .47209 1.2633 110.8 21.3  9.6 160
2018 06 18 20  22 52 40.180   -22 28 28.65  .47177 1.2631 110.8 21.3  9.7 160
2018 06 18 21  22 52 50.044   -22 26 54.79  .47144 1.2629 110.8 21.3  9.8 161
2018 06 18 22  22 52 59.911   -22 25 20.79  .47112 1.2626 110.8 21.3  9.9 161
2018 06 18 23  22 53 09.782   -22 23 46.65  .47079 1.2624 110.8 21.3 10.1 161
2018 06 19 00  22 53 19.655   -22 22 12.38  .47047 1.2621 110.8 21.3 10.2 161
2018 06 19 01  22 53 29.532   -22 20 37.96  .47015 1.2619 110.8 21.3 10.3 162
2018 06 19 02  22 53 39.412   -22 19 03.41  .46982 1.2616 110.8 21.3 10.5 162
2018 06 19 03  22 53 49.296   -22 17 28.72  .46950 1.2614 110.8 21.3 10.6 162
2018 06 19 04  22 53 59.182   -22 15 53.89  .46918 1.2611 110.8 21.3 10.7 163
2018 06 19 05  22 54 09.072   -22 14 18.93  .46885 1.2609 110.8 21.3 10.8 163
2018 06 19 06  22 54 18.965   -22 12 43.82  .46853 1.2606 110.7 21.3 11.0 163
2018 06 19 07  22 54 28.861   -22 11 08.58  .46821 1.2604 110.7 21.3 11.1 163
2018 06 19 08  22 54 38.760   -22 09 33.19  .46789 1.2601 110.7 21.3 11.3 164
2018 06 19 09  22 54 48.662   -22 07 57.67  .46756 1.2599 110.7 21.3 11.4 164
2018 06 19 10  22 54 58.568   -22 06 22.01  .46724 1.2597 110.7 21.3 11.5 164
2018 06 19 11  22 55 08.477   -22 04 46.21  .46692 1.2594 110.7 21.3 11.7 164
2018 06 19 12  22 55 18.389   -22 03 10.26  .46660 1.2592 110.7 21.3 11.8 165
2018 06 19 13  22 55 28.304   -22 01 34.18  .46628 1.2589 110.7 21.3 12.0 165
2018 06 19 14  22 55 38.223   -21 59 57.96  .46596 1.2587 110.7 21.3 12.1 165
2018 06 19 15  22 55 48.145   -21 58 21.60  .46564 1.2584 110.7 21.3 12.3 166
2018 06 19 16  22 55 58.070   -21 56 45.10  .46532 1.2582 110.7 21.3 12.4 166
2018 06 19 17  22 56 07.998   -21 55 08.45  .46500 1.2579 110.7 21.3 12.6 166
2018 06 19 18  22 56 17.929   -21 53 31.67  .46468 1.2577 110.7 21.3 12.7 166
2018 06 19 19  22 56 27.864   -21 51 54.75  .46436 1.2574 110.7 21.3 12.9 167
2018 06 19 20  22 56 37.802   -21 50 17.68  .46404 1.2572 110.7 21.3 13.0 167
2018 06 19 21  22 56 47.743   -21 48 40.48  .46372 1.2570 110.7 21.3 13.2 167
2018 06 19 22  22 56 57.687   -21 47 03.13  .46341 1.2567 110.6 21.3 13.4 168
2018 06 19 23  22 57 07.635   -21 45 25.64  .46309 1.2565 110.6 21.3 13.5 168
2018 06 20 00  22 57 17.586   -21 43 48.01  .46277 1.2562 110.6 21.3 13.7 168
2018 06 20 01  22 57 27.540   -21 42 10.24  .46245 1.2560 110.6 21.3 13.8 168
2018 06 20 02  22 57 37.497   -21 40 32.33  .46214 1.2557 110.6 21.3 14.0 169
2018 06 20 03  22 57 47.457   -21 38 54.28  .46182 1.2555 110.6 21.3 14.2 169
2018 06 20 04  22 57 57.421   -21 37 16.08  .46150 1.2552 110.6 21.3 14.4 169
2018 06 20 05  22 58 07.388   -21 35 37.74  .46119 1.2550 110.6 21.3 14.5 170
2018 06 20 06  22 58 17.359   -21 33 59.26  .46087 1.2547 110.6 21.3 14.7 170
2018 06 20 07  22 58 27.332   -21 32 20.64  .46055 1.2545 110.6 21.3 14.9 170
2018 06 20 08  22 58 37.309   -21 30 41.87  .46024 1.2543 110.6 21.3 15.1 170